User: anonymous   Login
Location: Unspecified
(0.0000°N, 0.0000°E)
Time: 10:35:38
(UTC+00:00)
Language:

Geosat FO - Orbit

View from above orbital plane
View from above orbital plane
View from above satellite
View from above satellite

Ground track
Ground track

The orbit data is extracted from the following two-line orbital elements,

1 25157U 98007A   18138.32791999 0.00001600  00000-0  97118-4 0    04
2 25157 107.7111  93.4342 0066907 330.7848  29.2151 15.08526739    02
Epoch (UTC): 18 May 2018 07:52:12
Eccentricity: 0.0066907
inclination: 107.7111°
perigee height: 494 km
apogee height: 587 km
right ascension of ascending node: 93.4342°
argument of perigee: 330.7848°
revolutions per day: 15.08526739
mean anomaly at epoch: 29.2151°
orbit number at epoch: 0

The dashed part of the orbit path shows where the satellite is in the earth's shadow,  

DLR